STARLINK-5220, 54760

Orbit data source: Space-Track

STARLINK-5220, 54760 is a payload satellite owned by SpaceX/Seattle (US) in LEO that was launched on Sat, 17 Dec 2022 UTC via an FALCON 9 launch vehicle from the Air Force Eastern Test Range (AFETR). Payload-class satellites include a variety of spacecraft equipped with specific instruments for various scientific and technological missions. These include communications satellites like Starlink; space stations such as the ISS; scientific satellites like the Hubble; Earth observation satellites from companies like Planet Labs, Umbra, and HawkEye 360; GPS; miniature CubeSats for education and research; and military/defense satellites.

Loading next visibility...
Identifier
54760, 2022-175C
Orbit
LEO
Country
Flag of USUS
Related business
Manufacturer
SpaceX/Seattle
Mission
Operational Commercial Communications
Bus & Motor
STARLINK, Unknown motor
Mass
305 kg wet, ~290 kg dry
Launch date (UTC)
2022-12-17 (4 years ago)
Launch vehicle
FALCON 9
Launch site
Air Force Eastern Test Range (AFETR)
Object type
Payload
Rocket body
Debris
Shape & HBR
Box + 1 Pan, 10.1 m
Radar Cross Section
13.562 m², Large (>1 m²)

Expand to show TLE details & history
Last TLE update: 3 days ago

TLE from 3 days ago
0 STARLINK-5220
1 54760U 22175C   26170.74788262  .00000225  00000-0  32212-4 0  9992
2 54760  53.1600 306.0390 0001148  84.3889 275.7233 15.08830316195328
Epoch: 2026-06-19T17:56Z
TLE epoch observation values (Epoch: 2026-06-19T17:56:57.058Z)
Latitude
-0.00004°
Longitude
128.82881°
Altitude
540.585 km
Speed
7.593 km/s
True Right ascension
20h 24m 09s
True Declination
0° 00' 00"
Sunlit
Object was in full shadow at epoch
Visualization orbit readout
Latitude
Unknown
Longitude
Unknown
Altitude
Unknown
Speed
Unknown
Apparent Right ascension
Unknown
Apparent Declination
Unknown
Sunlit
N/A
Visualization observer readout
Local Sidereal Time
21:32:47
Azimuth
Unknown
Elevation
Unknown
Doppler factor
Unknown
Orbital elements
Apogee altitude
540.821 km
Perigee altitude
539.233 km
Semi-major axis
6,918.164 km
Eccentricity
0.00011
Inclination
53.16°
RAAN
306.039°
Arg. of periapsis
84.3889°
True anomaly
275.71021°
Mean anomaly
275.7233°
Eccentric anomaly
275.71676°
Mean motion
3.77187 °/min
Orbital period
95.44 mins
BSTAR
0.000032212
Loading maneuver chart data...
Computing Atmospheric mass density...
Loading historical data...
Loading historical data...
Loading historical data...
Loading historical data...
Loading historical data...
Loading historical data...
Loading historical data...

Documentation

Showing up to 5 results
|